Preview of NWS' New Version of Forecast
This preview is not operational and should not be used for support decisions.

Regional Weather Roundup (RWR)

Issued by National Weather Service (NWS)

                            
000
ASUS44 KMEG 240500
RWRTN 
TENNESSEE HOURLY STATE WEATHER ROUNDUP
NATIONAL WEATHER SERVICE MEMPHIS TN
1200 AM CDT MON JUN 24 2019

TNZ002-004-019-021-049-052-054-088>092-240600-
WEST TENNESSEE
  
CITY           SKY/WX    TMP DP  RH WIND       PRES   REMARKS
MEMPHIS INTL   LGT RAIN  71  69  93 W7        29.89S                  
NWS MEMPHIS      N/A     69 N/A N/A MISG        N/A                   
JACKSON        LGT RAIN  68  66  93 CALM      29.89F                  
DYERSBURG      LGT RAIN  71  67  87 S6        29.87F                  
$$

TNZ008-025-027-028-033-062-065-066-240600-
NORTH MIDDLE TENNESSEE
  
CITY           SKY/WX    TMP DP  RH WIND       PRES   REMARKS
NASHVILLE      LGT RAIN  73  70  90 S9        29.92F                  
CLARKSVILLE    FAIR      71  69  93 S6        29.87S                  
SMYRNA         RAIN      71  69  93 SE3       29.93F FOG              
CROSSVILLE     FAIR      67  65  93 CALM      30.02F                  
$$

TNZ061-075-076-078-094-096-097-240600-
SOUTH MIDDLE TENNESSEE
  
CITY           SKY/WX    TMP DP  RH WIND       PRES   REMARKS
$$

TNZ017-018-042-046-047-240600-
NORTHEAST TENNESSEE
  
CITY           SKY/WX    TMP DP  RH WIND       PRES   REMARKS
TRI CITIES     FAIR      69  67  93 CALM      30.01F                  
$$

TNZ012-013-036-069-073-074-240600-
CENTRAL EAST TENNESSEE
  
CITY           SKY/WX    TMP DP  RH WIND       PRES   REMARKS
KNOXVILLE      FAIR      75  71  87 W3        29.97S                  
$$

TNZ083-085-099-240600-
SOUTHEAST TENNESSEE
  
CITY           SKY/WX    TMP DP  RH WIND       PRES   REMARKS
CHATTANOOGA    FAIR      75  73  93 CALM      29.97F                  
$$

SKY/WX REPORTED AS FAIR MEANS FEW OR NO CLOUDS BELOW
12 THOUSAND FEET.